Miscellaneous Local Product
Issued by NWS Hastings, NE

Home | Current Version | Previous Version | Graphics & Text | Print | Product List | Glossary On
Versions: 1 2 3 4 5 6 7 8 9 10 11 12 13 14 15 16 17 18 19 20 21 22 23 24 25 26 27 28 29 30 31 32 33 34 35 36 37 38 39 40 41 42 43 44 45 46 47 48 49 50
000
AXUS43 KGID 291702
MISGRI

GID CWA HOURLY WEATHER ROUNDUP
NATIONAL WEATHER SERVICE HASTINGS NE
1200 PM CDT FRI MAY 29 2015

NOTE: "FAIR" INDICATES FEW OR NO CLOUDS BELOW 12,000 FEET WITH NO
SIGNIFICANT WEATHER AND/OR OBSTRUCTIONS TO VISIBILITY.

...SOUTH CENTRAL NEBRASKA...

CITY           SKY/WX    TMP DP  RH WIND       PRES   REMARKS
GRAND ISLAND   MOSUNNY   72  58  61 N12       29.97R
HASTINGS       MOSUNNY   71  60  68 N10       29.97S
KEARNEY        MOSUNNY   73  57  56 NW14      29.98S
ORD            PTSUNNY   70  59  68 NW18G24   29.96F
YORK           CLOUDY    70  59  68 NW8       29.95S
AURORA         PTSUNNY   71  61  69 NW9       29.96S
LEXINGTON      MOSUNNY   71  59  66 NW14      30.01R
HOLDREGE       MOSUNNY   72  52  49 N10       29.99S
HEBRON         CLOUDY    71  57  61 CALM      29.96R

...NEBRASKA PANHANDLE...

CITY           SKY/WX    TMP DP  RH WIND       PRES   REMARKS
CHADRON        LGT RAIN  50  47  89 N17G25    30.20R FOG
ALLIANCE       HVY RAIN  52  51  97 NW18G26   30.14R VSB 1/2
SCOTTSBLUFF    RAIN      53  52  96 NW6       30.18R FOG
SIDNEY         CLOUDY    57  51  80 NW14      30.16S

...WESTERN AND NORTH CENTRAL NEBRASKA...

CITY           SKY/WX    TMP DP  RH WIND       PRES   REMARKS
VALENTINE      CLOUDY    54  51  90 N20G31    30.10R
AINSWORTH      LGT RAIN  57  56  97 NW20G28   30.07R
ONEILL         CLOUDY    64  61  90 NW14      29.97S
BROKEN BOW     PTSUNNY   70  57  63 N16       30.00F
IMPERIAL       MOSUNNY   68  54  60 NW17      30.09R
NORTH PLATTE   PTSUNNY   67  55  65 N13G20    30.05R
MCCOOK         PTSUNNY   72  55  55 NW14      30.04R

...EASTERN NEBRASKA...

CITY           SKY/WX    TMP DP  RH WIND       PRES   REMARKS
NORFOLK        PTSUNNY   72  62  71 VRB5      29.92S
SO SIOUX CITY  CLOUDY    72  60  66 W9        29.90R
TEKAMAH        CLOUDY    74  65  73 S8        29.90S
COLUMBUS       PTSUNNY   70  59  68 NW8       29.95R
ALBION         PTSUNNY   69  58  69 NW10G17   29.95R
OMAHA EPPLEY   CLOUDY    73  61  65 S12       29.92S
OFFUTT AFB     CLOUDY    74  60  63 SW12      29.92S
MILLARD        CLOUDY    72  61  68 S7        29.92S
LINCOLN        CLOUDY    72  61  68 S5        29.95R
NEBRASKA CITY  CLOUDY    71  64  79 SW10      29.96R
BEATRICE       CLOUDY    70  60  68 SW7       29.96S
FALLS CITY     CLOUDY    70  65  84 S9        29.96S

...NORTHERN KANSAS...

CITY           SKY/WX    TMP DP  RH WIND       PRES   REMARKS
GOODLAND       MOSUNNY   68  54  60 N14       30.11R
HILL CITY      MOSUNNY   73  56  54 N12       30.02R
NORTON         SUNNY     73  50  43 NW10      30.01R
PHILLIPSBURG   SUNNY     73  61  64 NW6       29.99S
SMITH CENTER   SUNNY     72  59  64 NW6       29.99R
HAYS           MOSUNNY   72  55  56 NW8       30.01R
RUSSELL        PTSUNNY   72  58  61 NW7       29.98S
CONCORDIA      CLOUDY    69  59  70 SW3       29.97S
SALINA         CLOUDY    72  61  68 W3        29.98S
TOPEKA         LGT RAIN  68  66  93 S12G22    29.98F



USA.gov is the U.S. government's official web portal to all federal, state and local government web resources and services.